Time,TemperatureF,DewpointF,PressureIn,WindDirection,WindDirectionDegrees,WindSpeedMPH,WindSpeedGustMPH,Humidity,HourlyPrecipIn,Conditions,Clouds,dailyrainin,SoftwareType,DateUTC
2013-01-15 00:00:00,32.5,32.5,30.14,WNW,292,10.0,12.0,100,0.05,,,0.00,Wunderground v.1.15,2013-01-15 05:00:00,
2013-01-15 00:03:00,32.5,32.5,30.14,West,281,10.0,12.0,100,0.05,,,0.00,Wunderground v.1.15,2013-01-15 05:03:00,
2013-01-15 00:04:00,32.6,32.6,30.14,WNW,290,9.0,12.0,100,0.11,,,0.01,Wunderground v.1.15,2013-01-15 05:04:00,
2013-01-15 00:10:00,33.2,33.2,30.14,WNW,292,8.0,9.0,100,0.12,,,0.02,Wunderground v.1.15,2013-01-15 05:10:00,
2013-01-15 00:16:00,33.9,33.9,30.14,WNW,297,6.0,9.0,100,0.20,,,0.04,Wunderground v.1.15,2013-01-15 05:16:00,
2013-01-15 00:22:00,35.2,35.2,30.13,WNW,297,5.0,9.0,100,0.13,,,0.05,Wunderground v.1.15,2013-01-15 05:22:00,
2013-01-15 00:28:00,36.3,36.3,30.13,NW,305,5.0,9.0,100,0.11,,,0.06,Wunderground v.1.15,2013-01-15 05:28:00,
2013-01-15 00:34:00,36.7,36.7,30.12,WNW,283,5.0,9.0,100,0.06,,,0.07,Wunderground v.1.15,2013-01-15 05:34:00,
2013-01-15 00:40:00,37.4,37.4,30.13,WNW,288,5.0,9.0,100,0.06,,,0.07,Wunderground v.1.15,2013-01-15 05:40:00,
2013-01-15 00:46:00,37.7,37.7,30.13,WNW,282,4.0,9.0,100,0.06,,,0.08,Wunderground v.1.15,2013-01-15 05:46:00,
2013-01-15 00:52:00,37.9,37.9,30.13,West,274,3.0,9.0,100,0.06,,,0.08,Wunderground v.1.15,2013-01-15 05:52:00,
2013-01-15 00:58:00,38.3,38.3,30.13,WNW,287,3.0,9.0,100,0.04,,,0.09,Wunderground v.1.15,2013-01-15 05:58:00,
2013-01-15 01:04:00,38.4,38.4,30.13,WSW,257,3.0,9.0,100,0.04,,,0.09,Wunderground v.1.15,2013-01-15 06:04:00,
2013-01-15 01:10:00,38.9,38.9,30.12,WSW,245,4.0,9.0,100,0.07,,,0.10,Wunderground v.1.15,2013-01-15 06:10:00,
2013-01-15 01:16:00,39.0,39.0,30.12,WSW,245,4.0,9.0,100,0.10,,,0.11,Wunderground v.1.15,2013-01-15 06:16:00,
2013-01-15 01:22:00,38.8,38.8,30.12,WSW,242,3.0,4.0,100,0.07,,,0.12,Wunderground v.1.15,2013-01-15 06:22:00,
2013-01-15 01:28:00,38.5,38.5,30.12,SSW,207,3.0,9.0,100,0.09,,,0.13,Wunderground v.1.15,2013-01-15 06:28:00,
2013-01-15 01:34:00,38.2,38.2,30.11,SSE,159,4.0,9.0,100,0.13,,,0.14,Wunderground v.1.15,2013-01-15 06:34:00,
2013-01-15 01:40:00,37.2,37.2,30.11,SSW,200,4.0,9.0,100,0.11,,,0.15,Wunderground v.1.15,2013-01-15 06:40:00,
2013-01-15 01:46:00,36.9,36.9,30.11,SW,229,4.0,9.0,100,0.13,,,0.16,Wunderground v.1.15,2013-01-15 06:46:00,
2013-01-15 01:52:00,37.5,37.5,30.10,SSW,194,4.0,9.0,100,0.16,,,0.18,Wunderground v.1.15,2013-01-15 06:52:00,
2013-01-15 01:58:00,38.5,38.5,30.10,SSW,200,3.0,9.0,100,0.09,,,0.18,Wunderground v.1.15,2013-01-15 06:58:00,
2013-01-15 02:04:00,38.4,38.4,30.11,WSW,255,3.0,9.0,100,0.08,,,0.19,Wunderground v.1.15,2013-01-15 07:04:00,
2013-01-15 02:10:00,38.4,38.4,30.12,SSW,204,3.0,9.0,100,0.06,,,0.20,Wunderground v.1.15,2013-01-15 07:10:00,
2013-01-15 02:16:00,38.1,38.1,30.11,NNE,31,3.0,9.0,100,0.06,,,0.20,Wunderground v.1.15,2013-01-15 07:16:00,
2013-01-15 02:22:00,37.3,37.3,30.12,South,177,1.0,9.0,100,0.05,,,0.20,Wunderground v.1.15,2013-01-15 07:22:00,
2013-01-15 02:28:00,36.9,36.9,30.12,West,276,2.0,9.0,100,0.00,,,0.21,Wunderground v.1.15,2013-01-15 07:28:00,
2013-01-15 02:34:00,36.9,36.9,30.12,West,262,3.0,9.0,100,0.00,,,0.21,Wunderground v.1.15,2013-01-15 07:34:00,
2013-01-15 02:40:00,38.1,38.1,30.12,SW,232,3.0,9.0,100,0.00,,,0.21,Wunderground v.1.15,2013-01-15 07:40:00,
2013-01-15 02:46:00,39.6,39.6,30.12,WSW,250,5.0,9.0,100,0.00,,,0.21,Wunderground v.1.15,2013-01-15 07:46:00,
2013-01-15 02:52:00,41.0,41.0,30.12,WSW,246,4.0,9.0,100,0.00,,,0.22,Wunderground v.1.15,2013-01-15 07:52:00,
2013-01-15 02:58:00,38.5,38.5,30.13,WNW,285,3.0,9.0,100,0.00,,,0.22,Wunderground v.1.15,2013-01-15 07:58:00,
2013-01-15 03:04:00,37.1,37.1,30.13,SW,218,4.0,9.0,100,0.06,,,0.23,Wunderground v.1.15,2013-01-15 08:04:00,
2013-01-15 03:10:00,34.8,34.8,30.12,West,267,5.0,9.0,100,0.10,,,0.24,Wunderground v.1.15,2013-01-15 08:10:00,
2013-01-15 03:16:00,33.5,33.5,30.13,SW,215,5.0,9.0,100,0.05,,,0.24,Wunderground v.1.15,2013-01-15 08:16:00,
2013-01-15 03:22:00,34.4,34.4,30.13,West,259,2.0,9.0,100,0.04,,,0.25,Wunderground v.1.15,2013-01-15 08:22:00,
2013-01-15 03:28:00,35.3,35.3,30.13,WNW,287,4.0,11.0,100,0.04,,,0.25,Wunderground v.1.15,2013-01-15 08:28:00,
2013-01-15 03:34:00,34.5,34.5,30.12,WSW,245,4.0,9.0,100,0.04,,,0.25,Wunderground v.1.15,2013-01-15 08:34:00,
2013-01-15 03:40:00,35.3,35.3,30.11,SE,134,4.0,9.0,100,0.00,,,0.25,Wunderground v.1.15,2013-01-15 08:40:00,
2013-01-15 03:46:00,36.5,36.5,30.12,WSW,254,4.0,9.0,100,0.00,,,0.25,Wunderground v.1.15,2013-01-15 08:46:00,
2013-01-15 03:52:00,36.0,36.0,30.12,NW,307,3.0,9.0,100,0.00,,,0.25,Wunderground v.1.15,2013-01-15 08:52:00,
2013-01-15 03:58:00,33.5,33.5,30.12,NW,305,5.0,9.0,100,0.00,,,0.25,Wunderground v.1.15,2013-01-15 08:58:00,
2013-01-15 04:04:00,32.1,32.1,30.11,WSW,250,7.0,9.0,100,0.00,,,0.25,Wunderground v.1.15,2013-01-15 09:04:00,
2013-01-15 04:10:00,32.2,32.2,30.12,NW,317,6.0,6.0,100,0.00,,,0.25,Wunderground v.1.15,2013-01-15 09:10:00,
2013-01-15 04:16:00,32.1,32.1,30.11,NE,39,4.0,9.0,100,0.00,,,0.25,Wunderground v.1.15,2013-01-15 09:16:00,
2013-01-15 04:22:00,34.1,34.1,30.10,WSW,242,3.0,9.0,100,0.00,,,0.25,Wunderground v.1.15,2013-01-15 09:22:00,
2013-01-15 04:28:00,32.7,32.7,30.11,NW,311,6.0,10.0,100,0.00,,,0.25,Wunderground v.1.15,2013-01-15 09:28:00,
2013-01-15 04:34:00,31.3,31.3,30.10,NNW,348,7.0,9.0,100,0.00,,,0.25,Wunderground v.1.15,2013-01-15 09:34:00,
2013-01-15 04:40:00,31.2,31.2,30.10,NNW,335,3.0,3.0,100,0.00,,,0.25,Wunderground v.1.15,2013-01-15 09:40:00,
2013-01-15 04:46:00,31.9,31.9,30.11,NW,319,2.0,9.0,100,0.00,,,0.25,Wunderground v.1.15,2013-01-15 09:46:00,
2013-01-15 04:52:00,31.3,31.3,30.12,WNW,303,5.0,9.0,100,0.00,,,0.25,Wunderground v.1.15,2013-01-15 09:52:00,
2013-01-15 04:58:00,30.8,30.8,30.12,NW,305,6.0,9.0,100,0.00,,,0.25,Wunderground v.1.15,2013-01-15 09:58:00,
2013-01-15 05:04:00,30.3,30.3,30.12,WNW,289,6.0,9.0,100,0.00,,,0.25,Wunderground v.1.15,2013-01-15 10:04:00,
2013-01-15 05:10:00,30.3,30.3,30.11,WNW,297,5.0,5.0,100,0.00,,,0.26,Wunderground v.1.15,2013-01-15 10:10:00,
2013-01-15 05:16:00,30.5,30.5,30.12,WNW,295,4.0,9.0,100,0.00,,,0.26,Wunderground v.1.15,2013-01-15 10:16:00,
2013-01-15 05:22:00,30.6,30.6,30.12,WNW,303,4.0,9.0,100,0.00,,,0.26,Wunderground v.1.15,2013-01-15 10:22:00,
2013-01-15 05:28:00,31.4,31.4,30.11,NW,306,4.0,9.0,100,0.00,,,0.26,Wunderground v.1.15,2013-01-15 10:28:00,
2013-01-15 05:34:00,31.0,31.0,30.13,NW,307,4.0,9.0,100,0.00,,,0.26,Wunderground v.1.15,2013-01-15 10:34:00,
2013-01-15 05:40:00,30.8,30.8,30.12,NNW,345,5.0,5.0,100,0.00,,,0.26,Wunderground v.1.15,2013-01-15 10:40:00,
2013-01-15 05:46:00,30.5,30.5,30.13,NW,305,5.0,9.0,100,0.00,,,0.26,Wunderground v.1.15,2013-01-15 10:46:00,
2013-01-15 05:52:00,30.4,30.4,30.14,WNW,300,5.0,9.0,100,0.00,,,0.26,Wunderground v.1.15,2013-01-15 10:52:00,
2013-01-15 05:58:00,30.3,30.3,30.13,NW,311,5.0,9.0,100,0.00,,,0.26,Wunderground v.1.15,2013-01-15 10:58:00,
2013-01-15 06:04:00,30.4,30.4,30.14,NW,308,3.0,9.0,100,0.00,,,0.26,Wunderground v.1.15,2013-01-15 11:04:00,
2013-01-15 06:15:00,30.6,30.6,30.13,NW,324,4.0,9.0,100,0.00,,,0.26,Wunderground v.1.15,2013-01-15 11:15:00,
2013-01-15 06:20:00,30.5,30.5,30.14,NW,311,4.0,9.0,100,0.00,,,0.26,Wunderground v.1.15,2013-01-15 11:20:00,
2013-01-15 06:27:00,30.5,30.5,30.15,WNW,301,5.0,9.0,100,0.00,,,0.26,Wunderground v.1.15,2013-01-15 11:27:00,
2013-01-15 06:33:00,30.3,30.3,30.15,North,9,5.0,9.0,100,0.00,,,0.26,Wunderground v.1.15,2013-01-15 11:33:00,
2013-01-15 06:39:00,31.0,31.0,30.15,North,4,4.0,9.0,100,0.00,,,0.26,Wunderground v.1.15,2013-01-15 11:39:00,
2013-01-15 06:44:00,31.3,31.3,30.16,NNW,333,5.0,9.0,100,0.00,,,0.26,Wunderground v.1.15,2013-01-15 11:44:00,
2013-01-15 06:50:00,31.5,31.5,30.17,NW,311,4.0,9.0,100,0.00,,,0.26,Wunderground v.1.15,2013-01-15 11:50:00,
2013-01-15 06:56:00,31.7,31.7,30.17,NW,321,4.0,9.0,100,0.00,,,0.26,Wunderground v.1.15,2013-01-15 11:56:00,
2013-01-15 07:02:00,31.8,31.8,30.17,NNW,341,4.0,9.0,100,0.00,,,0.26,Wunderground v.1.15,2013-01-15 12:02:00,
2013-01-15 07:08:00,31.8,31.8,30.17,NNW,343,4.0,9.0,100,0.00,,,0.26,Wunderground v.1.15,2013-01-15 12:08:00,
2013-01-15 07:14:00,31.8,31.8,30.16,NNE,18,3.0,9.0,100,0.00,,,0.26,Wunderground v.1.15,2013-01-15 12:14:00,
2013-01-15 07:20:00,31.9,31.9,30.19,NW,323,3.0,9.0,100,0.00,,,0.26,Wunderground v.1.15,2013-01-15 12:20:00,
2013-01-15 07:26:00,31.9,31.9,30.19,NNW,334,3.0,9.0,100,0.00,,,0.26,Wunderground v.1.15,2013-01-15 12:26:00,
2013-01-15 07:32:00,31.9,31.9,30.18,NNW,341,4.0,9.0,100,0.00,,,0.26,Wunderground v.1.15,2013-01-15 12:32:00,
2013-01-15 07:38:00,31.9,31.9,30.19,NNW,342,3.0,9.0,100,0.00,,,0.26,Wunderground v.1.15,2013-01-15 12:38:00,
2013-01-15 07:45:00,31.9,31.9,30.19,NE,50,2.0,9.0,100,0.00,,,0.26,Wunderground v.1.15,2013-01-15 12:45:00,
2013-01-15 07:50:00,31.9,31.9,30.20,ENE,76,2.0,9.0,100,0.00,,,0.26,Wunderground v.1.15,2013-01-15 12:50:00,
2013-01-15 07:56:00,32.0,32.0,30.20,NNE,15,3.0,9.0,100,0.00,,,0.26,Wunderground v.1.15,2013-01-15 12:56:00,
2013-01-15 08:02:00,32.0,32.0,30.20,ENE,74,3.0,9.0,100,0.00,,,0.26,Wunderground v.1.15,2013-01-15 13:02:00,
2013-01-15 08:08:00,32.0,32.0,30.20,ENE,60,4.0,9.0,100,0.00,,,0.26,Wunderground v.1.15,2013-01-15 13:08:00,
2013-01-15 08:14:00,32.0,32.0,30.22,East,85,4.0,9.0,100,0.00,,,0.26,Wunderground v.1.15,2013-01-15 13:14:00,
2013-01-15 08:20:00,32.1,32.1,30.21,East,98,3.0,9.0,100,0.00,,,0.26,Wunderground v.1.15,2013-01-15 13:20:00,
2013-01-15 08:27:00,32.2,32.2,30.18,ESE,113,6.0,10.0,100,0.00,,,0.26,Wunderground v.1.15,2013-01-15 13:27:00,
2013-01-15 08:32:00,32.0,32.0,30.22,NE,44,8.0,9.0,100,0.00,,,0.26,Wunderground v.1.15,2013-01-15 13:32:00,
2013-01-15 08:38:00,32.1,32.1,30.21,East,98,4.0,9.0,100,0.00,,,0.26,Wunderground v.1.15,2013-01-15 13:38:00,
2013-01-15 08:44:00,32.2,32.2,30.20,East,93,5.0,10.0,100,0.00,,,0.26,Wunderground v.1.15,2013-01-15 13:44:00,
2013-01-15 08:50:00,32.1,32.1,30.22,NNE,31,6.0,6.0,100,0.00,,,0.27,Wunderground v.1.15,2013-01-15 13:50:00,
2013-01-15 08:56:00,32.1,32.1,30.24,NW,326,4.0,9.0,100,0.06,,,0.27,Wunderground v.1.15,2013-01-15 13:56:00,
2013-01-15 09:03:00,31.8,31.8,30.24,WNW,300,4.0,9.0,100,0.06,,,0.28,Wunderground v.1.15,2013-01-15 14:03:00,
2013-01-15 09:08:00,31.7,31.7,30.25,WNW,297,5.0,9.0,100,0.05,,,0.28,Wunderground v.1.15,2013-01-15 14:08:00,
2013-01-15 09:14:00,31.0,31.0,30.25,NW,311,6.0,9.0,100,0.00,,,0.28,Wunderground v.1.15,2013-01-15 14:14:00,
2013-01-15 09:20:00,30.4,30.4,30.24,West,279,6.0,6.0,100,0.00,,,0.28,Wunderground v.1.15,2013-01-15 14:20:00,
2013-01-15 09:27:00,31.3,31.3,30.23,ESE,115,4.0,9.0,100,0.00,,,0.28,Wunderground v.1.15,2013-01-15 14:27:00,
2013-01-15 09:32:00,31.8,31.8,30.26,NNE,27,4.0,4.0,100,0.00,,,0.28,Wunderground v.1.15,2013-01-15 14:32:00,
2013-01-15 09:38:00,31.9,31.9,30.25,NE,39,2.0,9.0,100,0.00,,,0.28,Wunderground v.1.15,2013-01-15 14:38:00,
2013-01-15 09:44:00,32.1,32.1,30.25,NE,54,2.0,9.0,100,0.00,,,0.28,Wunderground v.1.15,2013-01-15 14:44:00,
2013-01-15 09:50:00,32.3,32.3,30.25,NE,36,3.0,3.0,100,0.00,,,0.28,Wunderground v.1.15,2013-01-15 14:50:00,
2013-01-15 09:56:00,32.4,32.4,30.25,East,81,2.0,9.0,100,0.00,,,0.28,Wunderground v.1.15,2013-01-15 14:56:00,
2013-01-15 10:02:00,32.6,32.6,30.24,East,79,3.0,9.0,100,0.00,,,0.28,Wunderground v.1.15,2013-01-15 15:02:00,
2013-01-15 10:09:00,32.7,32.7,30.25,East,80,3.0,9.0,100,0.00,,,0.28,Wunderground v.1.15,2013-01-15 15:09:00,
2013-01-15 10:14:00,32.4,32.4,30.26,NW,309,3.0,9.0,100,0.00,,,0.28,Wunderground v.1.15,2013-01-15 15:14:00,
2013-01-15 10:20:00,31.9,31.9,30.24,East,84,3.0,3.0,100,0.00,,,0.28,Wunderground v.1.15,2013-01-15 15:20:00,
2013-01-15 10:26:00,32.3,32.3,30.25,ESE,107,2.0,9.0,100,0.00,,,0.28,Wunderground v.1.15,2013-01-15 15:26:00,
2013-01-15 10:32:00,32.7,32.7,30.24,ENE,61,3.0,4.0,100,0.00,,,0.28,Wunderground v.1.15,2013-01-15 15:32:00,
2013-01-15 10:38:00,32.9,32.9,30.24,NE,50,3.0,9.0,100,0.00,,,0.29,Wunderground v.1.15,2013-01-15 15:38:00,
2013-01-15 10:44:00,33.1,33.1,30.24,NW,326,3.0,9.0,100,0.00,,,0.29,Wunderground v.1.15,2013-01-15 15:44:00,
2013-01-15 10:50:00,31.8,31.8,30.24,NW,304,3.0,9.0,100,0.00,,,0.29,Wunderground v.1.15,2013-01-15 15:50:00,
2013-01-15 10:56:00,31.6,31.6,30.24,NW,324,5.0,9.0,100,0.00,,,0.29,Wunderground v.1.15,2013-01-15 15:56:00,
2013-01-15 11:02:00,31.0,31.0,30.24,WNW,289,5.0,9.0,100,0.00,,,0.29,Wunderground v.1.15,2013-01-15 16:02:00,
2013-01-15 11:08:00,30.6,30.6,30.25,West,267,5.0,9.0,100,0.00,,,0.29,Wunderground v.1.15,2013-01-15 16:08:00,
2013-01-15 11:14:00,30.0,30.0,30.25,West,271,6.0,9.0,100,0.00,,,0.29,Wunderground v.1.15,2013-01-15 16:14:00,
2013-01-15 11:20:00,29.8,29.8,30.24,West,278,1.0,1.0,100,0.00,,,0.29,Wunderground v.1.15,2013-01-15 16:20:00,
2013-01-15 11:26:00,29.8,29.8,30.24,NW,304,0.0,9.0,100,0.00,,,0.29,Wunderground v.1.15,2013-01-15 16:26:00,
2013-01-15 11:32:00,30.7,30.7,30.22,East,91,0.0,9.0,100,0.00,,,0.29,Wunderground v.1.15,2013-01-15 16:32:00,
2013-01-15 11:39:00,31.9,31.9,30.21,East,87,0.0,9.0,100,0.00,,,0.29,Wunderground v.1.15,2013-01-15 16:39:00,
2013-01-15 11:44:00,32.3,32.3,30.22,ENE,66,0.0,9.0,100,0.00,,,0.29,Wunderground v.1.15,2013-01-15 16:44:00,
2013-01-15 11:50:00,32.7,32.7,30.20,ESE,123,0.0,9.0,100,0.00,,,0.29,Wunderground v.1.15,2013-01-15 16:50:00,
2013-01-15 11:56:00,32.6,32.6,30.18,ESE,110,5.0,10.0,100,0.00,,,0.30,Wunderground v.1.15,2013-01-15 16:56:00,
2013-01-15 12:03:00,32.4,32.4,30.22,NW,316,5.0,9.0,100,0.00,,,0.30,Wunderground v.1.15,2013-01-15 17:03:00,
2013-01-15 12:08:00,32.4,32.4,30.22,WNW,299,2.0,9.0,100,0.00,,,0.30,Wunderground v.1.15,2013-01-15 17:08:00,
2013-01-15 12:14:00,31.8,31.8,30.21,WNW,297,4.0,9.0,100,0.00,,,0.30,Wunderground v.1.15,2013-01-15 17:14:00,
2013-01-15 12:21:00,31.8,31.8,30.22,WNW,301,3.0,9.0,100,0.00,,,0.30,Wunderground v.1.15,2013-01-15 17:21:00,
2013-01-15 12:26:00,31.6,31.6,30.20,NW,304,3.0,9.0,100,0.00,,,0.30,Wunderground v.1.15,2013-01-15 17:26:00,
2013-01-15 12:32:00,30.8,30.8,30.21,WNW,290,5.0,9.0,100,0.00,,,0.30,Wunderground v.1.15,2013-01-15 17:32:00,
2013-01-15 12:38:00,30.3,30.3,30.21,West,280,4.0,9.0,100,0.00,,,0.30,Wunderground v.1.15,2013-01-15 17:38:00,
2013-01-15 12:45:00,30.9,30.9,30.19,East,85,0.0,9.0,100,0.00,,,0.30,Wunderground v.1.15,2013-01-15 17:45:00,
2013-01-15 12:50:00,31.6,31.6,30.18,ESE,123,0.0,9.0,100,0.00,,,0.30,Wunderground v.1.15,2013-01-15 17:50:00,
2013-01-15 12:56:00,31.8,31.8,30.19,NNW,342,0.0,9.0,100,0.00,,,0.30,Wunderground v.1.15,2013-01-15 17:56:00,
2013-01-15 13:02:00,31.7,31.7,30.17,SE,141,0.0,9.0,100,0.00,,,0.31,Wunderground v.1.15,2013-01-15 18:02:00,
2013-01-15 13:08:00,31.7,31.7,30.16,SE,143,0.0,9.0,100,0.00,,,0.31,Wunderground v.1.15,2013-01-15 18:08:00,
2013-01-15 13:14:00,31.6,31.6,30.17,ESE,106,0.0,9.0,100,0.00,,,0.31,Wunderground v.1.15,2013-01-15 18:14:00,
2013-01-15 13:21:00,31.5,31.5,30.20,West,280,0.0,9.0,100,0.00,,,0.32,Wunderground v.1.15,2013-01-15 18:21:00,
2013-01-15 13:26:00,30.8,30.8,30.18,WSW,238,0.0,9.0,100,0.00,,,0.32,Wunderground v.1.15,2013-01-15 18:26:00,
2013-01-15 13:32:00,30.9,30.9,30.17,SE,128,0.0,9.0,100,0.00,,,0.32,Wunderground v.1.15,2013-01-15 18:32:00,
2013-01-15 13:38:00,30.8,30.8,30.17,East,97,0.0,9.0,100,0.04,,,0.33,Wunderground v.1.15,2013-01-15 18:38:00,
2013-01-15 13:44:00,30.8,30.8,30.18,NNW,340,0.0,9.0,100,0.04,,,0.33,Wunderground v.1.15,2013-01-15 18:44:00,
2013-01-15 13:50:00,30.7,30.7,30.17,NNE,13,0.0,9.0,100,0.04,,,0.33,Wunderground v.1.15,2013-01-15 18:50:00,
2013-01-15 13:57:00,30.8,30.8,30.18,NW,311,0.0,9.0,100,0.00,,,0.34,Wunderground v.1.15,2013-01-15 18:57:00,
2013-01-15 14:02:00,30.7,30.7,30.17,NW,307,0.0,9.0,100,0.00,,,0.34,Wunderground v.1.15,2013-01-15 19:02:00,
2013-01-15 14:08:00,30.5,30.5,30.17,NW,305,0.0,9.0,100,0.00,,,0.34,Wunderground v.1.15,2013-01-15 19:08:00,
2013-01-15 14:14:00,30.3,30.3,30.17,ESE,103,0.0,9.0,100,0.00,,,0.34,Wunderground v.1.15,2013-01-15 19:14:00,
2013-01-15 14:20:00,30.6,30.6,30.16,ESE,120,0.0,9.0,100,0.00,,,0.34,Wunderground v.1.15,2013-01-15 19:20:00,
2013-01-15 14:26:00,30.6,30.6,30.18,WSW,255,0.0,9.0,100,0.00,,,0.34,Wunderground v.1.15,2013-01-15 19:26:00,
2013-01-15 14:33:00,30.8,30.8,30.17,SE,125,0.0,9.0,100,0.00,,,0.34,Wunderground v.1.15,2013-01-15 19:33:00,
2013-01-15 14:38:00,31.0,31.0,30.17,SE,129,0.0,9.0,100,0.00,,,0.34,Wunderground v.1.15,2013-01-15 19:38:00,
2013-01-15 14:45:00,30.9,30.9,30.18,SE,134,0.0,9.0,100,0.00,,,0.34,Wunderground v.1.15,2013-01-15 19:45:00,
2013-01-15 14:50:00,30.8,30.8,30.17,ESE,120,0.0,9.0,100,0.00,,,0.34,Wunderground v.1.15,2013-01-15 19:50:00,
2013-01-15 14:56:00,30.7,30.7,30.17,SE,128,0.0,9.0,100,0.00,,,0.34,Wunderground v.1.15,2013-01-15 19:56:00,
2013-01-15 15:02:00,30.7,30.7,30.15,ESE,108,0.0,9.0,100,0.00,,,0.34,Wunderground v.1.15,2013-01-15 20:02:00,
2013-01-15 15:08:00,30.3,30.3,30.17,SE,134,0.0,9.0,100,0.00,,,0.34,Wunderground v.1.15,2013-01-15 20:08:00,
2013-01-15 15:14:00,30.2,30.2,30.19,East,90,0.0,9.0,100,0.00,,,0.34,Wunderground v.1.15,2013-01-15 20:14:00,
2013-01-15 15:20:00,30.6,30.6,30.19,South,191,0.0,9.0,100,0.00,,,0.34,Wunderground v.1.15,2013-01-15 20:20:00,
2013-01-15 15:27:00,30.8,30.8,30.19,South,191,0.0,9.0,100,0.00,,,0.34,Wunderground v.1.15,2013-01-15 20:27:00,
2013-01-15 15:32:00,30.7,30.7,30.16,ESE,105,0.0,9.0,100,0.00,,,0.34,Wunderground v.1.15,2013-01-15 20:32:00,
2013-01-15 15:38:00,30.3,30.3,30.19,North,6,0.0,9.0,100,0.00,,,0.34,Wunderground v.1.15,2013-01-15 20:38:00,
2013-01-15 15:44:00,30.4,30.4,30.19,SW,232,0.0,9.0,100,0.00,,,0.34,Wunderground v.1.15,2013-01-15 20:44:00,
2013-01-15 15:50:00,30.6,30.6,30.19,East,91,0.0,9.0,100,0.00,,,0.34,Wunderground v.1.15,2013-01-15 20:50:00,
2013-01-15 15:56:00,30.6,30.6,30.18,ESE,120,0.0,9.0,100,0.00,,,0.34,Wunderground v.1.15,2013-01-15 20:56:00,
2013-01-15 16:02:00,30.5,30.5,30.18,SE,125,0.0,9.0,100,0.00,,,0.34,Wunderground v.1.15,2013-01-15 21:02:00,
2013-01-15 16:08:00,30.5,30.5,30.19,SE,128,0.0,9.0,100,0.00,,,0.34,Wunderground v.1.15,2013-01-15 21:08:00,
2013-01-15 16:14:00,30.5,30.5,30.19,East,79,0.0,9.0,100,0.00,,,0.34,Wunderground v.1.15,2013-01-15 21:14:00,
2013-01-15 16:20:00,30.7,30.7,30.17,ESE,120,0.0,9.0,100,0.00,,,0.34,Wunderground v.1.15,2013-01-15 21:20:00,
2013-01-15 16:26:00,30.5,30.5,30.18,SE,129,0.0,9.0,100,0.00,,,0.34,Wunderground v.1.15,2013-01-15 21:26:00,
2013-01-15 16:32:00,30.5,30.5,30.18,ESE,118,0.0,9.0,100,0.00,,,0.34,Wunderground v.1.15,2013-01-15 21:32:00,
2013-01-15 16:39:00,30.4,30.4,30.19,East,98,0.0,9.0,100,0.00,,,0.34,Wunderground v.1.15,2013-01-15 21:39:00,
2013-01-15 16:44:00,30.3,30.3,30.19,ESE,108,0.0,9.0,100,0.00,,,0.34,Wunderground v.1.15,2013-01-15 21:44:00,
2013-01-15 16:50:00,30.2,30.2,30.18,SE,133,0.0,9.0,100,0.00,,,0.34,Wunderground v.1.15,2013-01-15 21:50:00,
2013-01-15 16:57:00,30.1,30.1,30.17,SE,126,0.0,9.0,100,0.00,,,0.34,Wunderground v.1.15,2013-01-15 21:57:00,
2013-01-15 17:02:00,29.8,29.8,30.17,SE,124,0.0,9.0,100,0.00,,,0.34,Wunderground v.1.15,2013-01-15 22:02:00,
2013-01-15 17:10:00,29.7,29.7,30.16,ESE,118,0.0,9.0,100,0.00,,,0.34,Wunderground v.1.15,2013-01-15 22:10:00,
2013-01-15 17:17:00,29.7,29.7,30.16,SE,126,0.0,9.0,100,0.00,,,0.34,Wunderground v.1.15,2013-01-15 22:17:00,
2013-01-15 17:24:00,29.6,29.6,30.17,ESE,119,0.0,9.0,100,0.00,,,0.34,Wunderground v.1.15,2013-01-15 22:24:00,
2013-01-15 17:30:00,29.6,29.6,30.17,ESE,111,0.0,9.0,100,0.00,,,0.34,Wunderground v.1.15,2013-01-15 22:30:00,
2013-01-15 17:39:00,29.5,29.5,30.17,ESE,106,0.0,9.0,100,0.00,,,0.34,Wunderground v.1.15,2013-01-15 22:39:00,
2013-01-15 17:44:00,29.4,29.4,30.18,ESE,118,0.0,9.0,100,0.00,,,0.34,Wunderground v.1.15,2013-01-15 22:44:00,
2013-01-15 17:52:00,29.5,29.5,30.18,ESE,110,0.0,9.0,100,0.00,,,0.34,Wunderground v.1.15,2013-01-15 22:52:00,
2013-01-15 17:58:00,29.5,29.5,30.17,ESE,113,0.0,9.0,100,0.00,,,0.34,Wunderground v.1.15,2013-01-15 22:58:00,
2013-01-15 18:05:00,29.6,29.6,30.18,SE,125,0.0,9.0,100,0.00,,,0.34,Wunderground v.1.15,2013-01-15 23:05:00,
2013-01-15 18:10:00,29.8,29.8,30.18,ESE,106,0.0,9.0,100,0.00,,,0.34,Wunderground v.1.15,2013-01-15 23:10:00,
2013-01-15 18:16:00,29.9,29.9,30.18,SE,127,0.0,9.0,100,0.00,,,0.34,Wunderground v.1.15,2013-01-15 23:16:00,
2013-01-15 18:22:00,30.0,30.0,30.18,SE,134,0.0,9.0,100,0.00,,,0.34,Wunderground v.1.15,2013-01-15 23:22:00,
2013-01-15 18:28:00,30.0,30.0,30.18,ESE,117,0.0,9.0,100,0.00,,,0.34,Wunderground v.1.15,2013-01-15 23:28:00,
2013-01-15 18:34:00,29.9,29.9,30.19,ESE,105,0.0,9.0,100,0.00,,,0.34,Wunderground v.1.15,2013-01-15 23:34:00,
2013-01-15 18:43:00,29.7,29.7,30.18,East,96,0.0,9.0,100,0.00,,,0.34,Wunderground v.1.15,2013-01-15 23:43:00,
2013-01-15 18:49:00,29.7,29.7,30.17,East,84,0.0,9.0,100,0.00,,,0.34,Wunderground v.1.15,2013-01-15 23:49:00,
2013-01-15 18:54:00,29.7,29.7,30.18,East,84,0.0,9.0,100,0.00,,,0.34,Wunderground v.1.15,2013-01-15 23:54:00,
2013-01-15 19:00:00,29.6,29.6,30.19,East,83,0.0,9.0,100,0.00,,,0.34,Wunderground v.1.15,2013-01-16 00:00:00,
2013-01-15 19:07:00,29.4,29.4,30.18,East,84,0.0,9.0,100,0.00,,,0.34,Wunderground v.1.15,2013-01-16 00:07:00,
2013-01-15 19:13:00,29.6,29.6,30.18,East,83,0.0,9.0,100,0.00,,,0.34,Wunderground v.1.15,2013-01-16 00:13:00,
2013-01-15 19:18:00,29.7,29.7,30.18,East,83,0.0,9.0,100,0.00,,,0.34,Wunderground v.1.15,2013-01-16 00:18:00,
2013-01-15 19:26:00,29.9,29.9,30.18,East,82,0.0,9.0,100,0.00,,,0.34,Wunderground v.1.15,2013-01-16 00:26:00,
2013-01-15 19:32:00,30.1,30.1,30.19,East,83,0.0,9.0,100,0.00,,,0.34,Wunderground v.1.15,2013-01-16 00:32:00,
2013-01-15 19:38:00,30.0,30.0,30.18,East,84,0.0,9.0,100,0.00,,,0.34,Wunderground v.1.15,2013-01-16 00:38:00,
2013-01-15 19:45:00,30.0,30.0,30.18,East,82,0.0,9.0,100,0.00,,,0.34,Wunderground v.1.15,2013-01-16 00:45:00,
2013-01-15 19:50:00,30.0,30.0,30.17,East,84,0.0,9.0,100,0.00,,,0.34,Wunderground v.1.15,2013-01-16 00:50:00,
2013-01-15 19:57:00,29.9,29.9,30.18,East,84,0.0,9.0,100,0.00,,,0.34,Wunderground v.1.15,2013-01-16 00:57:00,
2013-01-15 20:02:00,29.9,29.9,30.17,East,84,0.0,9.0,100,0.00,,,0.34,Wunderground v.1.15,2013-01-16 01:02:00,
2013-01-15 20:08:00,29.9,29.9,30.17,East,84,0.0,9.0,100,0.00,,,0.34,Wunderground v.1.15,2013-01-16 01:08:00,
2013-01-15 20:14:00,29.9,29.9,30.18,East,84,0.0,9.0,100,0.00,,,0.34,Wunderground v.1.15,2013-01-16 01:14:00,
2013-01-15 20:20:00,29.9,29.9,30.18,East,83,0.0,9.0,100,0.00,,,0.34,Wunderground v.1.15,2013-01-16 01:20:00,
2013-01-15 20:26:00,29.8,29.8,30.18,East,83,0.0,9.0,100,0.00,,,0.34,Wunderground v.1.15,2013-01-16 01:26:00,
2013-01-15 20:32:00,29.8,29.8,30.17,East,84,0.0,9.0,100,0.00,,,0.34,Wunderground v.1.15,2013-01-16 01:32:00,
2013-01-15 20:38:00,29.8,29.8,30.16,East,84,0.0,9.0,100,0.00,,,0.34,Wunderground v.1.15,2013-01-16 01:38:00,
2013-01-15 20:45:00,30.0,30.0,30.15,East,83,0.0,9.0,100,0.00,,,0.34,Wunderground v.1.15,2013-01-16 01:45:00,
2013-01-15 20:50:00,29.9,29.9,30.15,East,83,0.0,9.0,100,0.00,,,0.34,Wunderground v.1.15,2013-01-16 01:50:00,
2013-01-15 20:56:00,29.8,29.8,30.14,East,83,0.0,9.0,100,0.00,,,0.34,Wunderground v.1.15,2013-01-16 01:56:00,
2013-01-15 21:03:00,29.7,29.7,30.14,East,83,0.0,9.0,100,0.00,,,0.34,Wunderground v.1.15,2013-01-16 02:03:00,
2013-01-15 21:09:00,29.6,29.6,30.13,East,84,0.0,9.0,100,0.00,,,0.34,Wunderground v.1.15,2013-01-16 02:09:00,
2013-01-15 21:14:00,29.6,29.6,30.13,East,84,0.0,9.0,100,0.00,,,0.34,Wunderground v.1.15,2013-01-16 02:14:00,
2013-01-15 21:20:00,29.5,29.5,30.13,East,83,0.0,9.0,100,0.00,,,0.34,Wunderground v.1.15,2013-01-16 02:20:00,
2013-01-15 21:26:00,29.5,29.5,30.12,East,84,0.0,9.0,100,0.00,,,0.34,Wunderground v.1.15,2013-01-16 02:26:00,
2013-01-15 21:35:00,29.4,29.4,30.13,East,84,0.0,9.0,100,0.00,,,0.34,Wunderground v.1.15,2013-01-16 02:35:00,
2013-01-15 21:40:00,29.3,29.3,30.12,East,84,0.0,9.0,100,0.00,,,0.34,Wunderground v.1.15,2013-01-16 02:40:00,
2013-01-15 21:47:00,29.5,29.5,30.12,East,83,0.0,9.0,100,0.00,,,0.34,Wunderground v.1.15,2013-01-16 02:47:00,
2013-01-15 21:52:00,29.6,29.6,30.12,East,83,0.0,9.0,100,0.00,,,0.34,Wunderground v.1.15,2013-01-16 02:52:00,
2013-01-15 21:58:00,29.4,29.4,30.12,East,83,0.0,9.0,100,0.00,,,0.34,Wunderground v.1.15,2013-01-16 02:58:00,
2013-01-15 22:05:00,29.4,29.4,30.12,East,84,0.0,9.0,100,0.00,,,0.34,Wunderground v.1.15,2013-01-16 03:05:00,
2013-01-15 22:13:00,29.6,29.6,30.13,East,84,0.0,9.0,100,0.00,,,0.34,Wunderground v.1.15,2013-01-16 03:13:00,
2013-01-15 22:18:00,29.6,29.6,30.13,East,83,0.0,9.0,100,0.00,,,0.34,Wunderground v.1.15,2013-01-16 03:18:00,
2013-01-15 22:24:00,29.5,29.5,30.12,East,83,0.0,9.0,100,0.00,,,0.34,Wunderground v.1.15,2013-01-16 03:24:00,
2013-01-15 22:32:00,29.5,29.5,30.12,East,84,0.0,9.0,100,0.00,,,0.34,Wunderground v.1.15,2013-01-16 03:32:00,
2013-01-15 22:39:00,29.6,29.6,30.12,East,84,0.0,9.0,100,0.00,,,0.34,Wunderground v.1.15,2013-01-16 03:39:00,
2013-01-15 22:44:00,29.4,29.4,30.12,East,84,0.0,9.0,100,0.00,,,0.34,Wunderground v.1.15,2013-01-16 03:44:00,
2013-01-15 22:50:00,29.4,29.4,30.11,East,84,0.0,9.0,100,0.00,,,0.34,Wunderground v.1.15,2013-01-16 03:50:00,
2013-01-15 22:56:00,29.6,29.6,30.10,East,83,0.0,9.0,100,0.00,,,0.34,Wunderground v.1.15,2013-01-16 03:56:00,
2013-01-15 23:02:00,29.6,29.6,30.10,East,84,0.0,9.0,100,0.00,,,0.34,Wunderground v.1.15,2013-01-16 04:02:00,
2013-01-15 23:08:00,29.7,29.7,30.10,East,84,0.0,9.0,100,0.00,,,0.34,Wunderground v.1.15,2013-01-16 04:08:00,
2013-01-15 23:15:00,29.8,29.8,30.10,East,83,0.0,9.0,100,0.00,,,0.34,Wunderground v.1.15,2013-01-16 04:15:00,
2013-01-15 23:20:00,29.8,29.8,30.10,East,84,0.0,9.0,100,0.00,,,0.34,Wunderground v.1.15,2013-01-16 04:20:00,
2013-01-15 23:26:00,29.9,29.9,30.09,East,83,0.0,9.0,100,0.00,,,0.34,Wunderground v.1.15,2013-01-16 04:26:00,
2013-01-15 23:32:00,29.7,29.7,30.10,East,84,0.0,9.0,100,0.00,,,0.34,Wunderground v.1.15,2013-01-16 04:32:00,
2013-01-15 23:38:00,29.6,29.6,30.09,East,84,0.0,9.0,100,0.00,,,0.34,Wunderground v.1.15,2013-01-16 04:38:00,
2013-01-15 23:44:00,29.4,29.4,30.09,East,84,0.0,9.0,100,0.00,,,0.34,Wunderground v.1.15,2013-01-16 04:44:00,
2013-01-15 23:50:00,29.2,29.2,30.08,East,84,0.0,9.0,100,0.00,,,0.34,Wunderground v.1.15,2013-01-16 04:50:00,
2013-01-15 23:56:00,29.2,29.2,30.07,East,84,0.0,9.0,100,0.00,,,0.34,Wunderground v.1.15,2013-01-16 04:56:00,